Погода в Окунёвке

Россия / Республика Крым     45°22′07″N   32°45′42″E
темп.,
°C
ветер,
м/с
пор.,
м/с
влажн.,
%
обл.,
%
осадки,
мм/ч
давл.,
гПа
погр.,
м
23 октября, сб
сб2300:00+16юз5784100 0.0 1018240
03:00+16юз5686100 0.0 1017176
06:00+16ююз5785100 0.0 1016187
09:00+16юз5786100 0.0 1017180
12:00+16зюз5685100 0.0 1018131
15:00+16зсз4583100 0.0 1018137
18:00+16ссв786962 0.0 1019288
21:00+15ссв566929 0.0 1020320
24 октября, вс
вс2400:00+14ссв5671100 0.0 1021338
03:00+14ссв4576100 0.0 1021296
06:00+13ссв8973100 0.1 1021579
09:00+12ссз91170100 2.3 10231176
12:00+12с8956100 1.0 10241374
15:00+12ссз995323 1.1 10241526
18:00+12ссз9105435 0.0 10261918
21:00+12с10105357 0.0 10281818
25 октября, пн
пн2500:00+11с885884 0.0 10291578
03:00+10с88647 0.1 10301145
06:00+9с7767100 0.1 10311318
09:00+8ссв6764100 0.1 10321378
12:00+9ссв565793 0.0 10331417
15:00+10с555122 0.0 10321452
18:00+10ссв55524 0.0 10321226
21:00+10всв66520 0.0 10321015
26 октября, вт
вт2600:00+10всв55530 0.0 1032864
03:00+9всв55540 0.0 1032621
06:00+9в76590 0.0 1031661
09:00+9в78610 0.0 1031643
12:00+10в78540 0.0 1030906
15:00+12вюв56470 0.0 10281085
18:00+12в56450 0.0 10271104
21:00+10в99630 0.0 1027558
27 октября, ср
ср2700:00+10в65660 0.0 1026468
03:00+10св33680 0.0 1025333
06:00+9ссв32690 0.0 1025262
09:00+9ссв22660 0.0 1025213
12:00+11сз33660 0.0 1025363
15:00+12сз456892 0.0 1024565
18:00+12сз5569100 0.0 1024567
21:00+12ссз5567100 0.0 1024664